Time,TemperatureF,DewpointF,PressureIn,WindDirection,WindDirectionDegrees,WindSpeedMPH,WindSpeedGustMPH,Humidity,HourlyPrecipIn,Conditions,Clouds,dailyrainin,SoftwareType,DateUTC
2013-02-07 00:02:00,22.0,18.0,-100.00,West,262,4.0,12.0,78,0.00,,,-99.99,,2013-02-07 05:02:00,
2013-02-07 00:12:00,20.0,14.0,-100.00,West,271,3.0,12.0,77,0.00,,,-99.99,,2013-02-07 05:12:00,
2013-02-07 00:21:00,19.0,14.0,-100.00,WNW,283,2.0,12.0,78,0.00,,,-99.99,,2013-02-07 05:21:00,
2013-02-07 00:32:00,17.0,14.0,-100.00,East,84,1.0,12.0,81,0.00,,,-99.99,,2013-02-07 05:32:00,
2013-02-07 00:42:00,14.0,12.0,-100.00,East,84,0.0,12.0,86,0.00,,,-99.99,,2013-02-07 05:42:00,
2013-02-07 00:52:00,19.0,18.0,-100.00,WNW,292,0.0,12.0,88,0.00,,,-99.99,,2013-02-07 05:52:00,
2013-02-07 01:02:00,19.0,18.0,-100.00,NW,304,0.0,12.0,88,0.00,,,-99.99,,2013-02-07 06:02:00,
2013-02-07 01:11:00,20.0,19.0,-100.00,NNW,328,0.0,12.0,91,0.00,,,-99.99,,2013-02-07 06:11:00,
2013-02-07 01:22:00,19.0,18.0,-100.00,WNW,296,2.0,12.0,86,0.00,,,-99.99,,2013-02-07 06:22:00,
2013-02-07 01:32:00,21.0,18.0,-100.00,WNW,292,5.0,12.0,81,0.00,,,-99.99,,2013-02-07 06:32:00,
2013-02-07 01:43:00,24.0,19.0,-100.00,WNW,300,6.0,12.0,80,0.00,,,-99.99,,2013-02-07 06:43:00,
2013-02-07 01:52:00,22.0,18.0,-100.00,NW,316,5.0,12.0,78,0.00,,,-99.99,,2013-02-07 06:52:00,
2013-02-07 02:02:00,25.0,21.0,-100.00,NNW,327,3.0,12.0,81,0.00,,,-99.99,,2013-02-07 07:02:00,
2013-02-07 02:11:00,24.0,19.0,-100.00,NNW,328,4.0,4.0,80,0.00,,,-99.99,,2013-02-07 07:11:00,
2013-02-07 02:22:00,22.0,18.0,-100.00,NW,307,4.0,4.0,81,0.00,,,-99.99,,2013-02-07 07:22:00,
2013-02-07 02:32:00,22.0,19.0,-100.00,NW,323,5.0,6.0,84,0.00,,,-99.99,,2013-02-07 07:32:00,
2013-02-07 02:42:00,24.0,21.0,-100.00,NW,306,4.0,6.0,84,0.00,,,-99.99,,2013-02-07 07:42:00,
2013-02-07 02:52:00,23.0,19.0,-100.00,West,280,4.0,6.0,81,0.00,,,-99.99,,2013-02-07 07:52:00,
2013-02-07 03:02:00,22.0,18.0,-100.00,West,268,5.0,6.0,80,0.00,,,-99.99,,2013-02-07 08:02:00,
2013-02-07 03:11:00,22.0,18.0,-100.00,WNW,283,4.0,6.0,80,0.00,,,-99.99,,2013-02-07 08:11:00,
2013-02-07 03:22:00,22.0,18.0,-100.00,WSW,247,4.0,6.0,81,0.00,,,-99.99,,2013-02-07 08:22:00,
2013-02-07 03:32:00,24.0,21.0,-100.00,WSW,247,4.0,6.0,82,0.00,,,-99.99,,2013-02-07 08:32:00,
2013-02-07 03:42:00,22.0,18.0,-100.00,SW,214,2.0,6.0,81,0.00,,,-99.99,,2013-02-07 08:42:00,
2013-02-07 03:52:00,20.0,18.0,-100.00,SSW,213,2.0,6.0,82,0.00,,,-99.99,,2013-02-07 08:52:00,
2013-02-07 04:02:00,21.0,18.0,-100.00,North,7,1.0,6.0,85,0.00,,,-99.99,,2013-02-07 09:02:00,
2013-02-07 04:11:00,20.0,18.0,-100.00,West,266,0.0,6.0,85,0.00,,,-99.99,,2013-02-07 09:11:00,
2013-02-07 04:22:00,19.0,16.0,-100.00,WSW,258,1.0,6.0,86,0.00,,,-99.99,,2013-02-07 09:22:00,
2013-02-07 04:32:00,22.0,19.0,-100.00,West,264,1.0,6.0,88,0.00,,,-99.99,,2013-02-07 09:32:00,
2013-02-07 04:42:00,19.0,16.0,-100.00,WNW,293,1.0,6.0,86,0.00,,,-99.99,,2013-02-07 09:42:00,
2013-02-07 04:52:00,19.0,16.0,-100.00,WNW,289,0.0,6.0,86,0.00,,,-99.99,,2013-02-07 09:52:00,
2013-02-07 05:02:00,19.0,18.0,-100.00,WNW,302,0.0,6.0,89,0.00,,,-99.99,,2013-02-07 10:02:00,
2013-02-07 05:11:00,22.0,19.0,-100.00,West,273,2.0,6.0,88,0.00,,,-99.99,,2013-02-07 10:11:00,
2013-02-07 05:22:00,21.0,19.0,-100.00,West,278,5.0,6.0,86,0.00,,,-99.99,,2013-02-07 10:22:00,
2013-02-07 05:32:00,23.0,19.0,-100.00,West,272,6.0,6.0,85,0.00,,,-99.99,,2013-02-07 10:32:00,
2013-02-07 05:42:00,23.0,21.0,-100.00,West,276,6.0,6.0,88,0.00,,,-99.99,,2013-02-07 10:42:00,
2013-02-07 05:51:00,23.0,19.0,-100.00,West,278,7.0,8.0,82,0.00,,,-99.99,,2013-02-07 10:51:00,
2013-02-07 06:01:00,24.0,19.0,-100.00,West,261,6.0,8.0,82,0.00,,,-99.99,,2013-02-07 11:01:00,
2013-02-07 06:11:00,23.0,19.0,-100.00,West,265,6.0,8.0,81,0.00,,,-99.99,,2013-02-07 11:11:00,
2013-02-07 06:23:00,24.0,19.0,-100.00,WNW,283,7.0,10.0,82,0.00,,,-99.99,,2013-02-07 11:23:00,
2013-02-07 06:32:00,24.0,21.0,-100.00,West,278,7.0,10.0,81,0.00,,,-99.99,,2013-02-07 11:32:00,
2013-02-07 06:44:00,24.0,21.0,-100.00,WNW,285,5.0,10.0,81,0.00,,,-99.99,,2013-02-07 11:44:00,
2013-02-07 06:52:00,26.0,21.0,-100.00,WNW,282,6.0,10.0,80,0.00,,,-99.99,,2013-02-07 11:52:00,
2013-02-07 07:02:00,23.0,19.0,-100.00,WNW,286,6.0,10.0,81,0.00,,,-99.99,,2013-02-07 12:02:00,
2013-02-07 07:12:00,24.0,19.0,-100.00,WNW,290,6.0,10.0,81,0.00,,,-99.99,,2013-02-07 12:12:00,
2013-02-07 07:22:00,24.0,19.0,-100.00,WNW,297,6.0,10.0,81,0.00,,,-99.99,,2013-02-07 12:22:00,
2013-02-07 07:33:00,26.0,23.0,-100.00,WNW,292,4.0,10.0,81,0.00,,,-99.99,,2013-02-07 12:33:00,
2013-02-07 07:42:00,25.0,19.0,-100.00,West,269,3.0,10.0,80,0.00,,,-99.99,,2013-02-07 12:42:00,
2013-02-07 07:53:00,26.0,23.0,-100.00,SW,230,2.0,10.0,81,0.00,,,-99.99,,2013-02-07 12:53:00,
2013-02-07 08:03:00,26.0,23.0,-100.00,SW,234,3.0,10.0,81,0.00,,,-99.99,,2013-02-07 13:03:00,
2013-02-07 08:12:00,25.0,21.0,-100.00,SSW,203,4.0,10.0,81,0.00,,,-99.99,,2013-02-07 13:12:00,
2013-02-07 08:22:00,26.0,23.0,-100.00,WSW,242,3.0,10.0,84,0.00,,,-99.99,,2013-02-07 13:22:00,
2013-02-07 08:32:00,26.0,23.0,-100.00,SW,221,2.0,10.0,82,0.00,,,-99.99,,2013-02-07 13:32:00,
2013-02-07 08:42:00,25.0,21.0,-100.00,West,261,1.0,10.0,81,0.00,,,-99.99,,2013-02-07 13:42:00,
2013-02-07 08:52:00,26.0,23.0,-100.00,WSW,245,2.0,10.0,81,0.00,,,-99.99,,2013-02-07 13:52:00,
2013-02-07 09:02:00,26.0,21.0,-100.00,West,261,2.0,10.0,78,0.00,,,-99.99,,2013-02-07 14:02:00,
2013-02-07 09:11:00,25.0,21.0,-100.00,SW,230,3.0,10.0,78,0.00,,,-99.99,,2013-02-07 14:11:00,
2013-02-07 09:22:00,28.0,23.0,-100.00,West,259,3.0,10.0,78,0.00,,,-99.99,,2013-02-07 14:22:00,
2013-02-07 09:32:00,25.0,21.0,-100.00,West,268,4.0,10.0,78,0.00,,,-99.99,,2013-02-07 14:32:00,
2013-02-07 09:42:00,27.0,21.0,-100.00,West,266,5.0,10.0,77,0.00,,,-99.99,,2013-02-07 14:42:00,
2013-02-07 09:52:00,27.0,21.0,-100.00,West,276,6.0,10.0,76,0.00,,,-99.99,,2013-02-07 14:52:00,
2013-02-07 10:02:00,27.0,21.0,-100.00,West,275,7.0,10.0,76,0.00,,,-99.99,,2013-02-07 15:02:00,
2013-02-07 10:11:00,27.0,21.0,-100.00,West,261,6.0,10.0,75,0.00,,,-99.99,,2013-02-07 15:11:00,
2013-02-07 10:22:00,25.0,19.0,-100.00,WSW,248,6.0,10.0,73,0.00,,,-99.99,,2013-02-07 15:22:00,
2013-02-07 10:32:00,29.0,21.0,-100.00,WSW,254,6.0,10.0,72,0.00,,,-99.99,,2013-02-07 15:32:00,
2013-02-07 10:42:00,29.0,23.0,-100.00,West,262,8.0,12.0,72,0.00,,,-99.99,,2013-02-07 15:42:00,
2013-02-07 10:52:00,30.0,23.0,-100.00,West,278,7.0,12.0,71,0.00,,,-99.99,,2013-02-07 15:52:00,
2013-02-07 11:01:00,31.0,23.0,-100.00,NW,304,6.0,12.0,69,0.00,,,-99.99,,2013-02-07 16:01:00,
2013-02-07 11:11:00,31.0,25.0,-100.00,West,279,8.0,12.0,71,0.00,,,-99.99,,2013-02-07 16:11:00,
2013-02-07 11:22:00,31.0,23.0,-100.00,WNW,295,7.0,12.0,71,0.00,,,-99.99,,2013-02-07 16:22:00,
2013-02-07 11:32:00,32.0,25.0,-100.00,West,266,6.0,12.0,72,0.00,,,-99.99,,2013-02-07 16:32:00,
2013-02-07 11:42:00,33.0,27.0,-100.00,WNW,283,4.0,12.0,72,0.00,,,-99.99,,2013-02-07 16:42:00,
2013-02-07 11:52:00,32.0,25.0,-100.00,West,269,5.0,12.0,69,0.00,,,-99.99,,2013-02-07 16:52:00,
2013-02-07 12:01:00,34.0,27.0,-100.00,WNW,285,6.0,12.0,69,0.00,,,-99.99,,2013-02-07 17:01:00,
2013-02-07 12:11:00,33.0,25.0,-100.00,West,280,8.0,12.0,68,0.00,,,-99.99,,2013-02-07 17:11:00,
2013-02-07 12:22:00,35.0,27.0,-100.00,WNW,302,9.0,12.0,69,0.00,,,-99.99,,2013-02-07 17:22:00,
2013-02-07 12:32:00,34.0,25.0,-100.00,WNW,288,9.0,12.0,67,0.00,,,-99.99,,2013-02-07 17:32:00,
2013-02-07 12:43:00,36.0,27.0,-100.00,NW,313,8.0,12.0,67,0.00,,,-99.99,,2013-02-07 17:43:00,
2013-02-07 12:52:00,34.0,25.0,-100.00,WNW,285,6.0,12.0,66,0.00,,,-99.99,,2013-02-07 17:52:00,
2013-02-07 13:02:00,36.0,27.0,-100.00,NW,309,6.0,12.0,66,0.00,,,-99.99,,2013-02-07 18:02:00,
2013-02-07 13:12:00,36.0,25.0,-100.00,WNW,283,7.0,12.0,62,0.00,,,-99.99,,2013-02-07 18:12:00,
2013-02-07 13:23:00,38.0,27.0,-100.00,West,275,6.0,12.0,60,0.00,,,-99.99,,2013-02-07 18:23:00,
2013-02-07 13:32:00,40.0,27.0,-100.00,West,278,7.0,12.0,58,0.00,,,-99.99,,2013-02-07 18:32:00,
2013-02-07 13:42:00,40.0,27.0,-100.00,WNW,282,7.0,12.0,58,0.00,,,-99.99,,2013-02-07 18:42:00,
2013-02-07 13:52:00,40.0,25.0,-100.00,West,272,7.0,12.0,54,0.00,,,-99.99,,2013-02-07 18:52:00,
2013-02-07 14:01:00,41.0,27.0,-100.00,West,275,6.0,12.0,54,0.00,,,-99.99,,2013-02-07 19:01:00,
2013-02-07 14:11:00,42.0,27.0,-100.00,WNW,283,6.0,12.0,51,0.00,,,-99.99,,2013-02-07 19:11:00,
2013-02-07 14:22:00,42.0,27.0,-100.00,WNW,297,4.0,12.0,51,0.00,,,-99.99,,2013-02-07 19:22:00,
2013-02-07 14:32:00,43.0,28.0,-100.00,WNW,288,6.0,12.0,53,0.00,,,-99.99,,2013-02-07 19:32:00,
2013-02-07 14:42:00,42.0,27.0,-100.00,West,276,5.0,12.0,51,0.00,,,-99.99,,2013-02-07 19:42:00,
2013-02-07 14:52:00,42.0,27.0,-100.00,WNW,282,4.0,12.0,51,0.00,,,-99.99,,2013-02-07 19:52:00,
2013-02-07 15:01:00,43.0,27.0,-100.00,WNW,300,5.0,12.0,49,0.00,,,-99.99,,2013-02-07 20:01:00,
2013-02-07 15:11:00,44.0,27.0,-100.00,WNW,285,5.0,12.0,49,0.00,,,-99.99,,2013-02-07 20:11:00,
2013-02-07 15:22:00,44.0,28.0,-100.00,WNW,299,6.0,12.0,50,0.00,,,-99.99,,2013-02-07 20:22:00,
2013-02-07 15:32:00,45.0,28.0,-100.00,WNW,285,5.0,12.0,49,0.00,,,-99.99,,2013-02-07 20:32:00,
2013-02-07 15:42:00,45.0,28.0,-100.00,WNW,283,5.0,12.0,49,0.00,,,-99.99,,2013-02-07 20:42:00,
2013-02-07 15:52:00,45.0,28.0,-100.00,West,279,3.0,12.0,49,0.00,,,-99.99,,2013-02-07 20:52:00,
2013-02-07 16:02:00,45.0,28.0,-100.00,WNW,299,4.0,12.0,49,0.00,,,-99.99,,2013-02-07 21:02:00,
2013-02-07 16:11:00,44.0,27.0,-100.00,NNW,327,4.0,12.0,50,0.00,,,-99.99,,2013-02-07 21:11:00,
2013-02-07 16:22:00,45.0,28.0,-100.00,NW,323,4.0,12.0,50,0.00,,,-99.99,,2013-02-07 21:22:00,
2013-02-07 16:32:00,44.0,28.0,-100.00,NW,310,5.0,12.0,50,0.00,,,-99.99,,2013-02-07 21:32:00,
2013-02-07 16:42:00,29.0,14.0,-100.00,WNW,290,6.0,12.0,51,0.00,,,-99.99,,2013-02-07 21:42:00,
2013-02-07 16:52:00,45.0,28.0,-100.00,NW,306,6.0,12.0,50,0.00,,,-99.99,,2013-02-07 21:52:00,
2013-02-07 17:02:00,45.0,28.0,-100.00,WNW,300,7.0,12.0,50,0.00,,,-99.99,,2013-02-07 22:02:00,
2013-02-07 17:11:00,46.0,30.0,-100.00,WNW,303,6.0,12.0,54,0.00,,,-99.99,,2013-02-07 22:11:00,
2013-02-07 17:22:00,43.0,28.0,-100.00,WNW,289,6.0,12.0,53,0.00,,,-99.99,,2013-02-07 22:22:00,
2013-02-07 17:32:00,43.0,27.0,-100.00,NW,309,7.0,12.0,51,0.00,,,-99.99,,2013-02-07 22:32:00,
2013-02-07 17:42:00,44.0,28.0,-100.00,WNW,288,7.0,12.0,53,0.00,,,-99.99,,2013-02-07 22:42:00,
2013-02-07 17:52:00,44.0,30.0,-100.00,WNW,293,6.0,12.0,54,0.00,,,-99.99,,2013-02-07 22:52:00,
2013-02-07 18:02:00,44.0,28.0,-100.00,NW,310,6.0,12.0,54,0.00,,,-99.99,,2013-02-07 23:02:00,
2013-02-07 18:11:00,44.0,28.0,-100.00,WNW,297,6.0,12.0,54,0.00,,,-99.99,,2013-02-07 23:11:00,
2013-02-07 18:22:00,45.0,30.0,-100.00,NW,307,5.0,12.0,55,0.00,,,-99.99,,2013-02-07 23:22:00,
2013-02-07 18:32:00,43.0,28.0,-100.00,NW,324,5.0,12.0,55,0.00,,,-99.99,,2013-02-07 23:32:00,
2013-02-07 18:42:00,43.0,28.0,-100.00,WNW,296,6.0,12.0,56,0.00,,,-99.99,,2013-02-07 23:42:00,
2013-02-07 18:52:00,41.0,28.0,-100.00,NW,323,4.0,12.0,58,0.00,,,-99.99,,2013-02-07 23:52:00,
2013-02-07 19:02:00,42.0,30.0,-100.00,WNW,295,5.0,12.0,59,0.00,,,-99.99,,2013-02-08 00:02:00,
2013-02-07 19:11:00,40.0,27.0,-100.00,WNW,297,7.0,12.0,59,0.00,,,-99.99,,2013-02-08 00:11:00,
2013-02-07 19:22:00,44.0,32.0,-100.00,NW,312,6.0,12.0,59,0.00,,,-99.99,,2013-02-08 00:22:00,
2013-02-07 19:32:00,42.0,30.0,-100.00,WNW,300,7.0,12.0,59,0.00,,,-99.99,,2013-02-08 00:32:00,
2013-02-07 19:42:00,43.0,30.0,-100.00,WNW,299,8.0,12.0,59,0.00,,,-99.99,,2013-02-08 00:42:00,
2013-02-07 19:52:00,41.0,30.0,-100.00,NW,307,5.0,12.0,62,0.00,,,-99.99,,2013-02-08 00:52:00,
2013-02-07 20:01:00,40.0,28.0,-100.00,WNW,296,6.0,12.0,62,0.00,,,-99.99,,2013-02-08 01:01:00,
2013-02-07 20:11:00,42.0,30.0,-100.00,WNW,283,6.0,12.0,63,0.00,,,-99.99,,2013-02-08 01:11:00,
2013-02-07 20:21:00,41.0,30.0,-100.00,WNW,303,7.0,12.0,63,0.00,,,-99.99,,2013-02-08 01:21:00,
2013-02-07 20:32:00,41.0,30.0,-100.00,WNW,300,8.0,12.0,62,0.00,,,-99.99,,2013-02-08 01:32:00,
2013-02-07 20:42:00,41.0,30.0,-100.00,NW,317,9.0,12.0,63,0.00,,,-99.99,,2013-02-08 01:42:00,
2013-02-07 20:51:00,41.0,30.0,-100.00,WNW,300,7.0,12.0,64,0.00,,,-99.99,,2013-02-08 01:51:00,
2013-02-07 21:01:00,40.0,30.0,-100.00,WNW,300,6.0,12.0,64,0.00,,,-99.99,,2013-02-08 02:01:00,
2013-02-07 21:11:00,39.0,28.0,-100.00,NW,306,6.0,12.0,64,0.00,,,-99.99,,2013-02-08 02:11:00,
2013-02-07 21:22:00,40.0,30.0,-100.00,NW,310,6.0,12.0,63,0.00,,,-99.99,,2013-02-08 02:22:00,
2013-02-07 21:32:00,39.0,28.0,-100.00,NW,312,6.0,12.0,64,0.00,,,-99.99,,2013-02-08 02:32:00,
2013-02-07 21:42:00,39.0,30.0,-100.00,NW,309,7.0,12.0,66,0.00,,,-99.99,,2013-02-08 02:42:00,
2013-02-07 21:52:00,40.0,30.0,-100.00,NW,317,9.0,12.0,66,0.00,,,-99.99,,2013-02-08 02:52:00,
2013-02-07 22:02:00,41.0,32.0,-100.00,NW,309,9.0,12.0,67,0.00,,,-99.99,,2013-02-08 03:02:00,
2013-02-07 22:12:00,39.0,30.0,-100.00,NW,317,8.0,12.0,67,0.00,,,-99.99,,2013-02-08 03:12:00,
2013-02-07 22:22:00,40.0,30.0,-100.00,NW,304,8.0,12.0,67,0.00,,,-99.99,,2013-02-08 03:22:00,
2013-02-07 22:32:00,40.0,32.0,-100.00,NW,309,7.0,12.0,67,0.00,,,-99.99,,2013-02-08 03:32:00,
2013-02-07 22:42:00,40.0,32.0,-100.00,NW,317,7.0,12.0,68,0.00,,,-99.99,,2013-02-08 03:42:00,
2013-02-07 22:52:00,39.0,30.0,-100.00,NW,304,8.0,12.0,68,0.00,,,-99.99,,2013-02-08 03:52:00,
2013-02-07 23:02:00,40.0,32.0,-100.00,WNW,300,7.0,12.0,69,0.00,,,-99.99,,2013-02-08 04:02:00,
2013-02-07 23:11:00,39.0,32.0,-100.00,WNW,297,7.0,12.0,71,0.00,,,-99.99,,2013-02-08 04:11:00,
2013-02-07 23:21:00,39.0,32.0,-100.00,NW,304,7.0,12.0,72,0.00,,,-99.99,,2013-02-08 04:21:00,
2013-02-07 23:32:00,40.0,32.0,-100.00,NW,310,7.0,12.0,71,0.00,,,-99.99,,2013-02-08 04:32:00,
2013-02-07 23:42:00,40.0,32.0,-100.00,NNW,331,7.0,12.0,71,0.00,,,-99.99,,2013-02-08 04:42:00,
2013-02-07 23:51:00,40.0,32.0,-100.00,NW,324,6.0,12.0,69,0.00,,,-99.99,,2013-02-08 04:51:00,